Home > Time Zones > World Clock > Weather > Japan > Kyoto > Past weeks

Flag for Japan Weather past 2 weeks in Kyoto, Japan

Now
62 °F

Cool.


Feels Like: 62 °F
Forecast: 52 / 77 °F
Wind: 2 mph from North

Location: Osaka

Current Time: Oct 26, 2014 at 4:51:45 AM

Latest Report: Oct 26, 2014 at 4:00 AM


Visibility: N/A

Pressure: 30.15 "Hg

Humidity: 82%

Dew point: 56 °F

Location of KyotoLocation

Historic Weather in Kyoto — Graph

°F

Kyoto temperature yesterday

Maximum temperature yesterday: 75 °F (at 3:00 PM)
Minimum temperature yesterday: 57 °F (at 4:00 AM)
Average temperature yesterday: 65 °F

Past Weeks' High & Low Weather Summary

 TemperatureHumidityPressure
High78 °F (Oct 11, 12:00 PM)97% (Oct 13, 7:00 PM)30.33 "Hg (Oct 13, 7:00 PM)
Low53 °F (Oct 18, 6:00 AM)25% (Oct 19, 4:00 PM)29.09 "Hg (Oct 13, 8:00 PM)
Average66 °F65%30.05 "Hg
* Reported Oct 11 3:00 AM — Oct 26 3:00 AM, Kyoto, Weather by CustomWeather, © 2014

Note: Actual official high and low records may vary slightly from our data, if they occured in-between our weather recording intervals... More about our weather records

Advertising

Kyoto weather history for previous 24 hours

 ConditionsComfort  
Time TempWeatherWind HumidityBarometerVisibility
3:00 AM
Oct 26
61 °FPassing clouds.2 mph81%30.15 "Hg9 mi
2:00 AM62 °FCool.3 mph77%30.17 "HgN/A
1:00 AM64 °FMild.3 mph76%30.18 "HgN/A
12:00 AM64 °FMild.3 mph75%30.18 "HgN/A
11:00 PM
Oct 25
64 °FMild.3 mph75%30.18 "HgN/A
10:00 PM65 °FMild.3 mph72%30.19 "HgN/A
9:00 PM67 °FPassing clouds.3 mph67%30.19 "Hg12 mi
8:00 PM68 °FMild.3 mph65%30.19 "HgN/A
7:00 PM69 °FMild.3 mph62%30.17 "HgN/A
6:00 PM71 °FPassing clouds.5 mph55%30.16 "Hg16 mi
5:00 PM71 °FMild.3 mph51%30.15 "HgN/A
4:00 PM73 °FMild.3 mph44%30.15 "HgN/A
3:00 PM75 °FPartly sunny.3 mph44%30.14 "Hg19 mi
2:00 PM75 °FMild.5 mph42%30.14 "HgN/A
1:00 PM74 °FMild.2 mph47%30.15 "HgN/A
12:00 PM72 °FOvercast.3 mph52%30.18 "Hg19 mi
11:00 AM69 °FMild.2 mph60%30.20 "HgN/A
10:00 AM64 °FMild.3 mph69%30.21 "HgN/A
9:00 AM61 °FPartly sunny.3 mph77%30.22 "Hg9 mi
8:00 AM59 °FCool.2 mph80%30.22 "HgN/A
7:00 AM57 °FCool.3 mph84%30.20 "HgN/A
6:00 AM57 °FPassing clouds.5 mph84%30.20 "Hg16 mi
5:00 AM57 °FCool.3 mph82%30.19 "HgN/A
4:00 AM57 °FCool.5 mph80%30.18 "HgN/A
Weather by CustomWeather, © 2014

See weather overviewHow to use our weather pages